Location: Newark
(44.3681°N, 100.3364°W)
Time: 14:52:14
(UTC+00:00)

deb Explorer IX - Pass Details

Date: 26 February 2020
Orbit: 548 x 1100 km, 38.8° (Epoch: 08 April)

Event Time Altitude Azimuth Distance (km) Brightness Sun altitude
Rises 17:46:50 0° 259° (W) 2,927 ? 34.8°
Reaches altitude 10° 17:49:22 10° 252° (WSW) 1,949 ? 34.9°
Maximum altitude 17:53:29 39° 183° (S) 856 ? 35.2°
Drops below altitude 10° 17:57:20 10° 114° (ESE) 1,818 ? 35.4°
Sets 17:59:38 0° 106° (ESE) 2,703 ? 35.5°
